Flag for U.S.A. Weather past 2 weeks in Marengo, Indiana, U.S.A.

Now
78 °F

Sunny.


Feels Like: 80 °F
Forecast: 49 / 74 °F
Wind: 8 mph from Northwest

Location: Bowling Green-Warren County Regional Airport

Current Time: Oct 25, 2014 at 5:17:54 PM

Latest Report: Oct 25, 2014 at 4:53 PM


Visibility: 10 mi

Pressure: 29.98 "Hg

Humidity: 54%

Dew point: 60 °F

Location of MarengoLocation

Historic Weather in Marengo — Graph

°F

Marengo temperature yesterday

Maximum temperature yesterday: 68 °F (at 4:53 PM)
Minimum temperature yesterday: 42 °F (at 7:53 AM)
Average temperature yesterday: 55 °F

Past Weeks' High & Low Weather Summary

 TemperatureHumidityPressure
High79 °F (Oct 13, 2:53 PM)93% (Oct 10, 10:53 PM)30.29 "Hg (Oct 10, 10:53 PM)
Low36 °F (Oct 23, 6:53 AM)39% (Oct 17, 5:53 PM)29.58 "Hg (Oct 14, 5:53 AM)
Average58 °F76%30.00 "Hg
* Reported Oct 10 3:53 PM — Oct 25 3:53 PM, Marengo, Weather by CustomWeather, © 2014

Note: Actual official high and low records may vary slightly from our data, if they occured in-between our weather recording intervals... More about our weather records

Advertising

Marengo weather history for previous 24 hours

 ConditionsComfort  
Time TempWeatherWind HumidityBarometerVisibility
3:53 PM
Oct 25
77 °FPassing clouds.6 mph56%29.98 "Hg10 mi
2:53 PM75 °FSunny.7 mph58%29.98 "Hg10 mi
1:53 PM73 °FSunny.5 mph59%30.00 "Hg10 mi
12:53 PM71 °FSunny.9 mph61%30.03 "Hg10 mi
11:53 AM67 °FOvercast.10 mph63%30.05 "Hg10 mi
10:53 AM62 °FScattered clouds.7 mph73%30.06 "Hg10 mi
9:53 AM56 °FMostly cloudy.6 mph81%30.07 "Hg9 mi
8:53 AM50 °FPartly cloudy.No wind86%30.07 "Hg7 mi
7:53 AM45 °FClear.No wind90%30.07 "Hg7 mi
6:53 AM45 °FFog.No wind93%30.07 "Hg5 mi
5:53 AM44 °FFog.No wind89%30.06 "Hg6 mi
4:53 AM46 °FClear.No wind86%30.07 "Hg8 mi
3:53 AM45 °FFog.No wind90%30.07 "Hg4 mi
2:53 AM45 °FFog.No wind90%30.07 "Hg5 mi
1:53 AM47 °FFog.No wind90%30.07 "Hg5 mi
12:53 AM47 °FFog.No wind90%30.08 "Hg6 mi
11:53 PM
Oct 24
49 °FClear.No wind86%30.08 "Hg9 mi
10:53 PM50 °FClear.No wind83%30.08 "Hg9 mi
9:53 PM53 °FClear.No wind83%30.08 "Hg10 mi
8:53 PM55 °FClear.No wind72%30.07 "Hg10 mi
7:53 PM59 °FSunny.No wind62%30.07 "Hg10 mi
6:53 PM64 °FSunny.No wind52%30.07 "Hg10 mi
5:53 PM67 °FSunny.6 mph47%30.06 "Hg10 mi
Weather by CustomWeather, © 2014

See weather overviewHow to use our weather pages